Location: Newark
(25.6108°S, 54.5803°W)
Time: 07:43:59
(UTC+00:00)

Envisat - Visible Passes

Search period start: 23 September 2020 00:00
Search period end: 03 October 2020 00:00
Orbit: 764 x 766 km, 98.1° (Epoch: 23 September)

Date Brightness Start Highest point End Pass type
(mag) Time Alt. Az. Time Alt. Az. Time Alt. Az.
23 Sep 4.9 08:25:30 10° NE 08:30:00 33° ESE 08:34:33 10° S visible
23 Sep 5.3 22:21:43 10° SSW 22:26:02 28° WSW 22:30:18 10° NW visible
24 Sep 6.2 07:51:13 10° E 07:53:33 13° ESE 07:55:54 10° SE visible
25 Sep 3.6 08:50:18 10° NNE 08:55:19 64° ESE 09:00:23 10° S visible
25 Sep 6.1 22:48:26 10° SW 22:51:13 15° WSW 22:53:59 10° WNW visible
26 Sep 5.4 08:14:37 10° NE 08:18:44 25° ESE 08:22:52 10° SSE visible
26 Sep 4.8 22:10:04 10° S 22:14:45 36° WSW 22:19:22 10° NW visible
28 Sep 4.2 08:39:08 10° NNE 08:43:59 48° ESE 08:48:55 10° S visible
28 Sep 5.9 22:36:23 10° SSW 22:39:58 19° WSW 22:43:33 10° WNW visible
29 Sep 5.9 08:03:55 10° ENE 08:07:28 19° ESE 08:11:02 10° SSE visible
29 Sep 4.2 21:58:31 10° S 22:03:27 48° WSW 22:08:19 10° NNW visible
01 Oct 4.8 08:28:04 10° NE 08:32:41 36° ESE 08:37:22 10° S visible
01 Oct 5.5 22:24:34 10° SSW 22:28:43 25° WSW 22:32:50 10° NW visible
02 Oct 6.2 07:53:29 10° ENE 07:56:14 15° ESE 07:58:59 10° SE visible
